Skip Page Navigation
NASA JPL Caltech
NASA Logo - Jet Propulsion Laboratory + View the NASA Portal
+ Near-Earth Object (NEO) Program
Search JPL
JPL Home Earth Solar System Stars & Galaxies Technology
JPL Solar System Dynamics
BODIES ORBITS EPHEMERIDES TOOLS PHYSICAL DATA DISCOVERY FAQ SITE MAP
JPL Small-Body Database Browser
Search: [ help ]  
(2008 TC4)
Classification: Aten [NEO, PHA]          SPK-ID: 3430309
Ephemeris | Orbit Diagram | Orbital Elements | Physical Parameters | Close-Approach Data ]

[ hide orbit diagram ]
Orbit Diagram
Note: Make sure you have Java enabled on your browser to see the applet. This applet is provided as a 3D orbit visualization tool. The applet was implemented using 2-body methods, and hence should not be used for determining accurate long-term trajectories (over several years or decades) or planetary encounter circumstances. For accurate long-term ephemerides, please instead use our Horizons system.
Orbit Viewer

Additional Notes: the orbits shown in the applet are color coded. The planets are white lines, and the asteroid/comet is a blue line. The bright white line indicates the portion of the orbit that is above the ecliptic plane, and the darker portion is below the ecliptic plane. Likewise for the asteroid/comet orbit, the light blue indicates the portion above the ecliptic plane, and the dark blue the portion below the ecliptic plane.

Orbit Viewer applet originally written and kindly provided by Osamu Ajiki (AstroArts), and further modified by Ron Baalke (JPL).


Orbital Elements at Epoch 2456400.5 (2013-Apr-18.0) TDB
Reference: JPL 23 (heliocentric ecliptic J2000)
 Element Value Uncertainty (1-sigma)   Units 
e .554318060389543 2.4546e-06  
a .7804435503816894 1.8862e-07 AU
q .3478295952905828 1.832e-06 AU
i 10.64402690320356 0.00010275 deg
node 212.6411209387408 6.8214e-05 deg
peri 324.2436181132343 3.649e-05 deg
M 76.2655563097241 0.00047129 deg
tp 2456347.149731124933
(2013-Feb-23.64973112)
0.00031042 JED
period 251.8318586312491
0.69
9.1297e-05
2.5e-07
d
yr
n 1.429525247348226 5.1825e-07 deg/d
Q 1.213057505472796 2.9318e-07 AU
  Orbit Determination Parameters
   # obs. used (total)      130  
   data-arc span      1420 days (3.89 yr)  
   first obs. used      2008-10-06  
   last obs. used      2012-08-26  
   planetary ephem.      DE405  
   SB-pert. ephem.      SB405-CPV-2  
   condition code      2  
   fit RMS      .45162  
   data source      ORB  
   producer      Otto Matic  
   solution date      2012-Aug-26 01:50:11  

Additional Information
 Earth MOID = .00360845 AU 
 T_jup = 7.301 
[ show covariance matrix ]

Ephemeris | Orbit Diagram | Orbital Elements | Physical Parameters | Close-Approach Data ]

Physical Parameter Table
Parameter Symbol Value Units Sigma Reference Notes
absolute magnitude H 21.468 mag .31293 23 autocmod 2.5b

[ show close-approach data ]
Ephemeris | Orbit Diagram | Orbital Elements | Physical Parameters | Close-Approach Data ]
ABOUT SSD CREDITS/AWARDS PRIVACY/COPYRIGHT GLOSSARY LINKS
FirstGov 2013-May-20 22:40 UT
(server date/time)  
NASA Home Page
Site Manager:   Donald K. Yeomans
Webmaster  Alan B. Chamberlin